Theta_e
306 307 308 308 309 310 309 306 303 302 300 296 292 292 292 291 291 290 290 290 290 290 290 290 290 289 289 289 288 288 288 288 287 287 287 287 287 286 286 286 286 286
305 306 306 305 305 307 306 304 302 300 297 294 292 292 292 291 290 289 289 290 290 289 289 289 289 288 288 288 288 288 287 287 287 287 287 287 287 286 286 286 286 286
304 304 304 304 304 306 304 301 299 297 294 292 292 292 291 290 289 289 289 289 289 289 289 288 288 288 288 288 287 287 287 287 287 286 286 287 286 286 286 286 286 285
303 303 303 304 305 306 304 299 295 293 292 292 292 291 291 290 289 289 289 289 289 288 288 288 288 287 287 287 286 286 286 286 287 286 286 286 286 286 286 286 286 285
303 303 303 303 304 304 301 297 294 292 291 292 291 291 290 289 289 289 288 288 288 288 288 287 287 287 286 286 286 286 286 286 286 286 286 286 286 286 286 286 286 285
301 301 303 302 302 302 299 295 293 292 291 291 291 290 290 289 289 289 288 288 288 288 287 287 287 286 286 286 285 285 285 285 285 285 286 286 286 285 285 285 285 285
298 299 301 301 300 300 297 294 292 291 291 291 291 290 289 289 288 288 288 288 287 287 287 286 286 286 286 285 285 285 285 285 285 285 285 286 286 285 285 285 285 284
299 299 299 299 299 297 294 292 290 290 290 290 290 290 289 289 288 288 288 287 287 287 286 286 286 286 285 285 285 285 285 285 285 285 286 286 286 286 285 285 285 284
298 299 298 297 297 295 292 290 289 290 290 290 290 289 289 288 288 288 288 287 287 286 286 286 286 286 285 285 285 285 285 285 285 286 286 286 286 286 285 285 284 284
296 297 296 295 295 293 291 290 289 289 289 289 289 289 289 288 288 288 287 287 286 286 286 286 286 285 285 285 285 284 285 286 286 286 286 286 286 286 285 285 284 284
294 294 294 293 293 291 290 289 288 288 288 288 289 289 288 288 288 287 287 287 286 286 286 286 286 285 285 285 285 284 285 285 286 286 286 286 286 285 285 284 284 284
292 292 292 292 290 290 289 289 288 288 288 288 288 288 288 288 287 287 287 287 286 286 286 286 286 285 285 285 285 284 284 285 285 285 285 285 285 285 284 284 283 283
291 291 291 291 290 289 289 289 288 288 288 288 288 288 288 288 287 287 287 286 286 286 286 286 285 285 285 285 284 284 284 285 285 285 285 285 285 284 284 283 283 283
291 290 290 290 289 289 288 288 288 287 287 288 288 288 288 288 288 287 287 286 286 286 286 285 285 285 285 285 284 284 284 285 285 285 286 286 286 285 284 283 283 282
290 290 289 289 288 288 288 288 287 287 287 288 288 288 288 288 287 287 286 286 286 286 285 285 285 285 285 285 285 284 285 285 285 286 287 287 287 286 284 284 283 282
290 289 288 288 288 287 287 287 287 287 287 287 287 287 287 287 287 286 286 286 286 286 286 285 285 285 285 285 285 285 285 285 285 286 287 288 288 286 285 284 283 282
289 289 288 288 288 288 287 287 287 287 286 286 286 286 286 286 286 286 286 286 286 286 286 285 285 285 285 285 285 285 285 285 285 286 288 289 288 287 286 285 283 282
290 289 289 288 288 287 287 287 286 286 285 285 285 285 285 285 285 286 286 286 286 286 285 285 285 285 285 285 285 285 285 285 285 287 289 290 290 288 287 286 284 283
290 289 288 288 287 287 286 286 285 285 285 285 285 285 285 285 285 286 286 285 285 285 285 285 286 286 286 286 285 285 285 285 285 287 290 291 291 289 288 287 286 284
289 288 288 287 287 286 286 285 285 285 285 285 285 285 285 285 285 285 285 285 285 285 286 286 286 286 286 286 285 285 285 285 286 288 291 291 291 290 289 288 287 286
288 288 287 287 286 286 286 285 285 285 285 285 285 285 285 285 285 285 285 285 286 286 286 286 286 286 286 286 286 286 286 285 286 288 290 291 290 290 290 289 288 286
288 288 287 287 286 286 286 285 285 285 285 285 285 285 285 284 284 285 285 286 286 285 285 285 286 286 286 286 286 286 286 286 286 288 290 290 290 291 290 290 289 288
289 288 288 287 287 286 286 285 285 285 285 285 284 284 284 284 284 285 285 285 285 285 285 285 286 286 286 286 287 287 287 286 286 287 289 290 290 291 290 290 290 289
289 288 288 288 287 287 286 286 285 285 285 284 284 284 284 284 284 283 283 284 285 285 286 286 286 287 286 287 288 288 287 286 285 286 288 290 290 290 290 290 290 289
289 288 288 288 288 288 287 287 286 286 285 285 285 284 284 284 283 283 283 284 285 285 286 286 286 287 287 287 288 287 286 285 283 284 287 289 289 289 289 290 290 289
289 289 289 289 289 288 288 287 287 286 285 285 285 284 284 284 284 284 285 285 285 285 285 285 286 286 287 287 286 285 284 282 282 283 286 288 289 288 288 288 288 288
Wind_Speed
35 35 33 32 31 31 35 37 37 38 40 41 40 38 36 35 33 32 31 30 28 27 26 26 25 25 25 25 24 23 22 22 21 20 19 18 17 17 16 15 13 12
36 35 33 32 32 32 35 38 38 40 42 41 39 37 36 35 33 32 31 30 28 27 26 26 25 25 24 24 23 23 22 22 21 20 19 17 17 16 15 14 13 11
36 35 34 33 32 32 35 38 39 41 42 41 39 37 36 35 34 32 31 30 29 27 27 26 25 25 24 24 23 22 22 21 21 21 19 18 17 16 15 14 13 11
37 36 35 34 31 31 36 40 41 42 43 41 39 38 37 36 34 33 31 30 29 28 28 27 26 25 24 23 22 22 21 20 20 20 19 18 17 16 15 13 12 11
37 36 35 34 32 33 37 41 43 43 43 41 40 39 38 37 35 34 32 30 29 29 29 28 27 26 24 23 22 21 20 19 18 18 17 17 16 14 13 12 11 10
37 36 36 34 34 35 38 42 43 44 43 42 41 40 38 37 36 34 33 31 30 30 29 29 28 26 24 22 21 20 19 18 17 16 15 15 15 14 12 11 10 9
38 37 36 35 34 36 39 41 43 44 43 43 41 40 39 38 36 35 33 32 31 30 30 29 27 26 24 23 22 20 19 18 17 16 14 13 13 12 12 11 10 10
38 37 36 35 35 36 39 41 43 44 43 43 42 40 39 38 37 35 33 32 31 30 29 28 27 26 25 23 22 21 20 18 17 16 14 13 12 12 12 11 11 11
37 37 36 36 37 38 39 41 43 43 43 42 41 40 39 38 37 35 34 32 31 31 29 28 27 26 25 23 22 22 20 19 17 16 14 13 12 12 12 12 13 12
37 37 37 37 38 39 40 41 42 42 42 41 41 40 39 38 37 35 34 33 32 31 30 29 27 26 25 24 23 22 20 18 17 15 14 12 12 12 12 13 13 13
37 37 38 39 39 39 40 41 42 42 41 41 40 40 39 39 38 36 35 34 33 31 30 29 28 26 25 24 23 21 20 18 16 14 13 12 12 12 13 13 13 12
37 38 38 39 39 39 40 41 42 42 42 41 40 40 40 39 39 38 36 34 33 32 31 29 28 27 26 24 23 22 21 18 16 14 13 12 12 13 13 13 13 13
37 38 39 39 39 39 40 41 42 42 42 41 41 40 41 40 40 38 36 35 33 32 31 30 29 27 26 24 23 22 21 19 16 15 13 13 13 14 14 14 14 14
37 37 38 38 39 39 40 41 42 42 42 42 41 41 41 41 41 39 37 35 34 33 32 30 29 27 26 25 24 23 21 18 17 15 14 13 14 15 16 16 16 16
35 36 36 37 37 38 39 40 41 42 42 42 42 42 42 42 41 39 38 36 35 33 32 31 29 28 27 26 24 23 21 19 18 16 15 14 15 16 17 17 18 18
34 35 35 36 37 38 39 40 41 42 43 43 43 43 42 42 41 39 38 38 36 35 34 33 32 30 28 26 24 22 21 20 19 18 15 14 16 17 18 19 20 20
34 35 36 36 38 38 39 40 41 42 42 42 42 41 41 41 40 39 39 38 37 37 36 35 33 30 27 25 24 23 22 22 21 19 16 16 17 18 19 20 21 22
36 37 38 38 39 39 39 40 41 41 40 40 40 40 40 40 39 39 39 38 38 37 36 35 32 29 27 26 25 25 24 23 22 20 18 17 19 20 20 21 22 23
37 37 38 38 38 38 38 38 38 39 39 39 39 39 39 39 39 39 39 39 38 37 36 34 31 29 28 27 27 26 25 24 24 22 19 19 20 21 21 22 24 25
35 36 36 36 36 36 37 37 37 38 38 38 38 38 39 39 40 40 39 39 39 37 36 34 33 31 30 29 28 26 26 26 26 24 21 21 22 22 23 24 26 26
33 33 33 33 34 35 35 36 37 37 38 38 39 39 40 41 41 40 40 39 38 37 36 36 35 33 31 30 29 28 27 29 29 27 24 24 24 23 24 26 27 28
32 32 33 33 33 34 35 35 36 37 37 38 38 38 39 39 39 39 40 40 39 38 37 37 36 33 32 31 30 29 30 31 32 31 29 28 27 25 26 28 29 31
34 34 34 34 34 34 34 35 36 36 36 36 36 35 35 36 38 39 39 39 39 37 37 37 36 34 34 33 32 32 33 35 36 36 33 31 29 28 28 29 32 33
34 35 34 34 34 35 35 35 34 34 34 34 34 34 35 36 36 36 35 35 36 36 36 37 37 36 35 35 35 37 38 39 39 39 36 34 32 30 30 31 33 36
33 33 33 33 34 35 35 34 34 33 33 33 33 33 33 33 32 31 32 33 34 35 36 37 38 37 37 37 39 40 41 40 39 38 37 36 34 33 32 33 35 37
33 34 34 34 34 34 34 33 32 32 31 31 31 31 30 30 30 31 32 33 34 35 37 38 39 39 39 39 40 41 41 39 38 37 37 36 35 34 33 34 36 38
Wind_Direction
200 197 195 194 196 198 195 192 191 190 188 186 185 184 183 183 183 182 181 182 182 181 178 176 175 174 173 172 172 170 167 165 159 155 153 151 148 146 146 146 147 148
199 197 197 197 197 198 197 194 193 191 189 187 186 185 185 185 184 183 183 182 181 179 177 176 176 176 175 174 172 171 168 165 160 156 156 155 151 150 151 151 151 154
200 199 199 199 199 199 199 195 193 192 189 187 187 186 186 186 185 183 183 183 181 179 178 177 177 178 177 176 174 174 172 170 166 162 161 160 156 157 158 157 159 160
201 202 202 202 203 204 202 197 193 191 189 188 188 188 188 187 186 185 184 183 182 180 179 179 179 179 179 178 178 177 177 176 171 165 165 162 160 162 162 161 165 167
204 204 204 204 205 206 203 198 194 192 190 189 189 189 189 188 187 186 184 184 184 183 181 181 181 180 180 180 181 182 182 179 174 170 170 166 162 164 166 165 169 174
205 204 205 206 207 207 204 199 196 193 191 190 190 190 190 189 189 188 186 186 185 185 184 183 182 181 181 182 185 187 186 184 178 175 177 174 167 167 168 172 178 183
205 204 205 207 208 208 206 201 197 194 192 192 192 191 191 190 190 189 189 188 188 188 187 185 184 182 183 185 187 189 190 188 184 181 183 181 176 176 176 180 189 193
207 206 206 207 208 208 205 201 197 194 193 193 193 192 192 192 192 191 190 191 190 191 190 188 186 185 186 187 189 193 194 192 190 189 189 188 186 188 189 193 200 203
207 208 208 208 208 207 204 200 198 195 195 195 194 193 192 193 194 193 192 193 193 193 192 191 189 188 189 191 193 196 198 197 197 197 198 197 196 199 202 206 209 211
206 207 208 208 207 206 203 201 199 197 196 196 195 194 193 194 195 195 195 195 196 196 195 193 192 191 192 195 196 199 203 205 203 202 204 207 209 212 215 217 218 219
206 207 207 206 205 204 203 201 200 198 197 197 196 195 195 195 196 197 198 198 198 198 198 196 195 195 196 198 199 202 207 210 209 208 209 214 219 223 226 227 228 229
205 206 206 205 204 203 203 202 201 200 199 197 197 197 197 197 198 198 199 200 200 201 201 200 199 198 200 201 202 204 208 210 211 211 214 220 227 231 234 236 236 237
205 205 206 205 204 204 203 203 202 201 200 199 198 199 199 199 200 200 201 201 202 204 204 204 203 202 202 204 205 208 210 211 211 213 218 226 234 238 240 242 242 242
205 205 206 205 205 204 204 203 203 202 201 201 200 200 201 202 202 202 201 202 204 206 207 207 206 205 205 206 208 211 213 214 215 217 223 232 239 243 245 247 247 246
204 204 205 204 203 203 204 204 203 203 203 202 202 202 203 204 204 203 202 202 204 207 209 210 209 208 208 209 211 213 214 217 218 221 228 237 244 249 251 252 251 249
202 203 203 202 203 203 204 204 204 204 204 203 203 203 203 204 203 203 203 204 205 207 209 210 210 210 210 211 212 215 218 220 221 223 228 237 245 251 254 255 255 253
201 202 202 202 203 204 204 204 204 204 204 203 203 202 202 203 203 203 204 206 207 209 210 211 211 211 211 212 214 218 221 223 223 225 230 238 244 249 254 258 258 257
201 201 201 202 203 203 203 204 204 203 203 202 202 202 202 203 204 205 206 207 209 211 212 212 212 212 212 214 216 219 222 224 225 228 235 242 245 247 253 259 260 261
201 200 200 200 200 201 202 202 202 202 202 203 203 203 203 204 206 207 208 208 209 211 213 214 214 213 214 216 218 221 223 225 226 230 239 248 249 249 252 257 261 263
199 199 199 199 198 199 200 201 202 203 204 205 205 204 205 206 207 208 208 209 211 212 214 216 216 215 216 218 220 223 226 228 228 233 242 250 251 251 252 255 259 263
197 196 196 196 197 198 199 201 202 203 204 206 206 207 208 208 208 208 209 211 213 214 215 217 217 216 217 221 223 225 228 230 230 234 242 249 250 252 254 255 256 259
196 194 194 196 196 197 198 200 202 204 205 206 207 207 208 208 209 210 212 213 213 214 215 218 219 219 219 223 225 227 230 233 233 235 240 246 250 254 258 258 256 256
197 196 195 195 195 196 198 200 203 204 205 206 206 206 207 209 211 212 213 213 213 214 216 219 220 221 222 224 227 229 231 233 234 234 237 244 249 254 259 262 260 258
198 196 195 194 195 197 199 201 203 204 206 207 207 208 210 212 213 213 213 215 216 217 220 223 225 225 225 227 231 233 233 233 233 233 237 244 249 254 260 264 262 260
197 197 197 196 197 200 202 203 204 205 207 209 210 211 213 213 214 215 217 219 221 223 225 226 228 229 228 230 234 235 233 232 231 232 236 243 249 255 261 265 264 261
198 198 199 200 201 202 203 203 204 204 205 208 210 212 214 216 218 221 223 225 226 227 228 229 230 231 231 233 234 234 232 230 229 231 236 244 251 257 261 264 265 264